ZTF彗星

C/2022 P3 ( ZTF )

English version
Home page
Updated on November 13, 2022

---------------------------------------------------------------------

・ プロフィール

発見日 2022年8月2日
発見光度 19.4等
発見者 Zwicky Transient Facility (ZTF) Collaboration

・ 写真集

・ 軌道要素

Epoch 2022 Aug. 9.0 TT = JDT 2459800.5
T 2022 July 27.32397 TT                                 Rudenko
q   2.5612104            (2000.0)            P               Q
z  +0.0041346      Peri.    0.08548     +0.30439727     -0.48351709
 +/-0.0000002      Node    72.23472     +0.87343090     -0.20210686
e   0.9894103      Incl.   59.51911     +0.38007995     +0.85168307
>From 216 observations 2022 Aug. 2-Nov. 6, mean residual 0".5.

・ 光度変化

        m1 = 11.5 + 5 logΔ + 10.0 log r

---------------------------------------------------------------------

軌道要素はM.P.E.C. 2022-V125に掲載されたものです。
光度グラフはComet for Windowsで作成したものです。

---------------------------------------------------------------------

Copyright(C) Seiichi Yoshida (comet@aerith.net). All rights reserved.